Regional Weather Roundup
Issued by NWS

Home | Current Version | Previous Version | Text Only | Print | Product List | Glossary On
Versions: 1 2 3 4 5 6 7 8 9 10 11 12 13 14 15 16 17 18 19 20 21 22 23 24 25 26 27 28 29 30 31 32 33 34
000
ASUS45 KSLC 222210
RWRUT

UTAH REGIONAL WEATHER ROUNDUP
NATIONAL WEATHER SERVICE SALT LAKE CITY UT
400 PM MDT WED OCT 22 2014

UTZ001>011-023>025-222300-

NORTHERN UTAH

CITY           SKY/WX    TMP DP  RH WIND       PRES   REMARKS
BRIGHAM CITY   SUNNY     60  25  25 SW5       30.18S
HILL AFB       SUNNY     61  29  29 W8        30.17F
LOGAN          SUNNY     59  25  27 NW3       30.17S
OGDEN          SUNNY     62  27  26 N3        30.17S
PROVO AIRPORT  MOSUNNY   59  32  36 W3        30.16F
SALT LAKE CITY PTSUNNY   62  32  32 N7        30.16S
VERNAL         SUNNY     61  39  44 E5        30.14S
WENDOVER       SUNNY     57  28  33 SE6       30.17F
HEBER CITY     SUNNY     63  23  22 SW13      30.15S
WEST JORDAN    SUNNY     61  39  44 NW7       30.17F

$$

UTZ012>022-026-027-222300-

SOUTHERN/CENTRAL UTAH

CITY           SKY/WX    TMP DP  RH WIND       PRES   REMARKS
BLANDING       MOSUNNY   68  36  30 S9        30.22F
BRYCE CANYON   CLOUDY    61  32  33 E9        30.23S
CEDAR CITY     SUNNY     67  32  27 W6        30.15F
DELTA          SUNNY     63  28  26 CALM      30.16S
HANKSVILLE       N/A     72  34  25 CALM      30.09S
MILFORD        SUNNY     67  29  24 NE8       30.14F
MOAB/CYNLANDS  SUNNY     72  36  26 CALM      30.07F
PRICE          SUNNY     65  27  23 CALM      30.15S
ST GEORGE      CLEAR     79  34  19 NW8       30.04F

$$

REGIONAL REPORTS     COLORADO/ARIZONA

CITY           SKY/WX    TMP DP  RH WIND       PRES   REMARKS
CRAIG, CO      SUNNY     59  34  39 W10       30.18S
GRAND JUNCTION MOSUNNY   68  43  40 VRB6      30.10F
RIFLE          MOSUNNY   60  40  47 N17G24    30.15R
MONTROSE       CLOUDY    65  39  38 NW12      30.16R
CORTEZ         SUNNY     68  35  29 NW9G18    30.17S
PAGE, AZ       SUNNY     75  37  25 CALM      30.07F
GRAND CANYON   SUNNY     67  30  25 VRB5      30.22F
KINGMAN        SUNNY     80  34  19 SW9       30.06S
FLAGSTAFF      SUNNY     65  36  34 S12G17    30.23S

$$

REGIONAL REPORTS    NEVADA/IDAHO/WYOMING

CITY           SKY/WX    TMP DP  RH WIND       PRES   REMARKS
LAS VEGAS, NV  MOSUNNY   82  26  13 SE6       29.96F
ELY            SUNNY     67  22  18 VRB6      30.15F
ELKO           PTSUNNY   65  20  17 SW8       30.12F
POCATELLO, ID  SUNNY     59  27  29 W6        30.16S
BURLEY         PTSUNNY   60  29  30 NW6       30.12F
EVANSTON, WY   MOSUNNY   55  17  22 W14G24    30.21S
ROCK SPRINGS   SUNNY     53  20  27 W16G23    30.20R
KEMMERER       SUNNY     50  19  29 W17       30.22S

$$



USA.gov is the U.S. government's official web portal to all federal, state and local government web resources and services.